Location: Maccacari
(45.1333°N, 11.1333°E)
Time: 02:36:42
(UTC+00:00)

S-56A Canister/Altair - Pass Details

Date: 29 June 2021
Orbit: 631 x 2501 km, 38.9° (Epoch: 03 August)

Event Time Altitude Azimuth Distance (km) Brightness Sun altitude
Exits shadow 01:44:03 21° 221° (SW) 1,666 8.6 -14.1°
Maximum altitude 01:46:44 35° 171° (S) 1,120 8.0 -13.8°
Drops below altitude 10° 01:50:50 10° 105° (ESE) 2,025 10.0 -13.4°
Sets 01:53:10 0° 95° (E) 2,914 11.0 -13.2°
